[Iaude] MPEC V58: 2016 VX1 [a=1.20,e=0.54,i=3.5,H=25.1]

mpec at si.edu mpec at si.edu
Mon Nov 7 17:06:17 EST 2016


M.P.E.C. 2016-V58                                Issued 2016 Nov. 7, 22:02 UT
 
     The Minor Planet Electronic Circulars contain information on unusual
         minor planets and routine data on comets.  They are published
    on behalf of Division F of the International Astronomical Union by the
          Minor Planet Center, Smithsonian Astrophysical Observatory,
                          Cambridge, MA 02138, U.S.A.

             Prepared using the Tamkin Foundation Computer Network

                              MPC at CFA.HARVARD.EDU
            URL http://www.minorplanetcenter.net/    ISSN 1523-6714


                                   2016 VX1
 
Observations:
     K16V01X* C2016 11 04.42532 04 29 52.833+14 48 00.26         21.2 wLEV058F51
     K16V01X  C2016 11 04.43617 04 29 54.908+14 48 01.26         21.3 wLEV058F51
     K16V01X  C2016 11 04.44707 04 29 56.996+14 48 02.25         21.2 wLEV058F51
     K16V01X  C2016 11 04.45807 04 29 59.095+14 48 02.90         21.2 wLEV058F51
     K16V01X _C2016 11 05.55704004 34 33.576+14 48 28.17         20.7 RUEV058568
     K16V01X _C2016 11 05.55808904 34 33.830+14 48 28.12         20.8 RUEV058568
     K16V01X _C2016 11 05.55913404 34 34.083+14 48 28.09         20.7 RUEV058568
     K16V01X  C2016 11 07.36619 04 45 20.71 +14 48 06.4          20.1 RoEV058926
     K16V01X  C2016 11 07.37277 04 45 23.38 +14 48 06.6          20.2 RoEV058926
     K16V01X  C2016 11 07.37775 04 45 25.36 +14 48 06.2          21.1 RoEV058926
     K16V01X HC2016 11 07.49011 04 46 11.52 +14 47 53.3                oEV058291
     K16V01X HC2016 11 07.49078 04 46 11.78 +14 47 53.1                oEV058291
     K16V01X HC2016 11 07.49145 04 46 12.11 +14 47 53.1                oEV058291
 
Observer details:
291 LPL/Spacewatch II.  Observer A. F. Tubbiolo.  1.8-m f/2.7 reflector + CCD.
568 Mauna Kea.  Observers R. J. Wainscoat, C. Wipper, P. Forshay, D. Woodworth.
    Measurers M. Micheli, R. J. Wainscoat.  3.6-m Canada-France-Hawaii
    Telescope + CCD.
926 Tenagra II Observatory.  Observers M. Schwartz, P. R. Holvorcem.  Measurer
    M. Schwartz.  0.81-m f/7 Ritchey-Chretien + CCD.
F51 Pan-STARRS 1, Haleakala.  Observers B. Gibson, T. Goggia, S. Kahale,
    A. Schultz, M. Willman.  Measurers K. Chambers, S. Chastel, L. Denneau,
    H. Flewelling, M. Huber, E. Lilly, E. Magnier, R. Wainscoat, C. Waters,
    R. Weryk.  1.8-m Ritchey-Chretien + CCD.
 
Orbital elements:
2016 VX1                                                 Earth MOID = 0.0023 AU
Epoch 2016 July 31.0 TT = JDT 2457600.5                 MPC
M 238.95890              (2000.0)            P               Q
n   0.74962962     Peri.  102.59069     -0.91920111     -0.39068192
a   1.2001574      Node    54.43271     +0.33362408     -0.83921643
e   0.5371453      Incl.    3.47930     +0.20919916     -0.37826369
P   1.31           H   25.1           G   0.15           U   8
Residuals in seconds of arc
161104 F51  0.1-  0.1-    161105 568  0.0   0.1-    161107 291  0.0   0.2-
161104 F51  0.1-  0.0     161105 568  0.0   0.1-    161107 291  0.4-  0.2-
161104 F51  0.0   0.1+    161107 926  0.4-  0.3+    161107 291  0.3+  0.1-
161104 F51  0.2+  0.1+    161107 926  0.3+  0.6+
161105 568  0.0   0.1-    161107 926  0.2+  0.4+

Ephemeris:
2016 VX1                 a,e,i = 1.20, 0.54, 3                   q = 0.5555
Date    TT    R. A. (2000) Decl.     Delta      r     Elong.  Phase     V
2016 10 08    03 50 41.8 +14 34 20   0.3905  1.3083   136.0    32.1    25.0
...
2016 10 23    04 06 21.4 +14 43 59   0.2222  1.1872   146.9    27.3    23.4
...
2016 10 31    04 17 58.1 +14 46 24   0.1388  1.1171   151.8    24.8    22.2
...
2016 11 06    04 36 48.1 +14 48 47   0.07887 1.0622   153.1    25.0    20.9
2016 11 07    04 42 44.2 +14 48 51   0.06911 1.0528   152.7    25.6    20.6
2016 11 08    04 50 31.7 +14 48 14   0.05943 1.0435   151.7    26.7    20.3
...
2016 11 14    10 19 00.8 +01 41 55   0.01347 0.9861    76.0   103.3    19.5
...
2016 11 22    15 18 30.6 -13 51 20   0.08146 0.9075     9.9   169.2
...
2016 12 07    15 46 46.1 -14 58 30   0.2421  0.7584    17.9   156.5    31.3

A. U. Tomatic                (C) Copyright 2016 MPC           M.P.E.C. 2016-V58




More information about the Iaude mailing list